• In Deutschland
  • Länderverzeichnis
  • Für 7 Tage
  • Wassertemperatur
  • Satellitenkarten
  • Wetterkarte
  • Widgets
  • user-avatar
    Anmelden

    Stündliche Wetter Satif

    Heute, 24 August, Donnerstag

    Zeit Temperatur Niederschläge Wind Luftdruck Luftfeuchtigkeit
    00:00 +25°C° 0 mm 1 m/S 675 mmHg 45%
    01:00 +25°C° 0 mm 1 m/S 675 mmHg 46%
    02:00 +25°C° 0 mm 1 m/S 674 mmHg 46%
    03:00 +24°C° 0 mm 1 m/S 674 mmHg 46%
    04:00 +24°C° 0 mm 2 m/S 674 mmHg 45%
    05:00 +24°C° 0 mm 2 m/S 675 mmHg 44%
    06:00 +25°C° 0 mm 2 m/S 675 mmHg 44%
    07:00 +26°C° 0 mm 2 m/S 675 mmHg 40%
    08:00 +28°C° 0 mm 3 m/S 676 mmHg 35%
    09:00 +29°C° 0 mm 3 m/S 677 mmHg 31%
    10:00 +30°C° 0 mm 3 m/S 677 mmHg 29%
    11:00 +31°C° 0 mm 3 m/S 677 mmHg 26%
    12:00 +33°C° 0 mm 3 m/S 677 mmHg 24%
    13:00 +34°C° 0 mm 3 m/S 677 mmHg 23%
    14:00 +34°C° 0 mm 3 m/S 676 mmHg 22%
    15:00 +34°C° 0 mm 2 m/S 676 mmHg 21%
    16:00 +34°C° 0 mm 2 m/S 676 mmHg 22%
    17:00 +32°C° 0 mm 2 m/S 676 mmHg 23%
    18:00 +32°C° 0 mm 2 m/S 676 mmHg 24%
    19:00 +31°C° 0 mm 2 m/S 676 mmHg 26%
    20:00 +30°C° 0 mm 1 m/S 676 mmHg 29%
    21:00 +29°C° 0 mm 1 m/S 676 mmHg 31%
    22:00 +28°C° 0 mm 1 m/S 676 mmHg 31%
    23:00 +28°C° 0 mm 1 m/S 676 mmHg 32%

    Morgen, 25 August, Freitag

    Zeit Temperatur Niederschläge Wind Luftdruck Luftfeuchtigkeit
    00:00 +27°C° 0 mm 1 m/S 675 mmHg 33%
    01:00 +27°C° 0 mm 2 m/S 675 mmHg 34%
    02:00 +27°C° 0 mm 2 m/S 675 mmHg 35%
    03:00 +26°C° 0 mm 2 m/S 675 mmHg 35%
    04:00 +26°C° 0 mm 3 m/S 675 mmHg 38%
    05:00 +26°C° 0 mm 3 m/S 675 mmHg 40%
    06:00 +25°C° 0 mm 3 m/S 675 mmHg 42%
    07:00 +27°C° 0 mm 3 m/S 676 mmHg 39%
    08:00 +28°C° 0 mm 3 m/S 676 mmHg 36%
    09:00 +29°C° 0 mm 3 m/S 677 mmHg 33%
    10:00 +31°C° 0 mm 3 m/S 676 mmHg 31%
    11:00 +33°C° 0 mm 3 m/S 676 mmHg 28%
    12:00 +34°C° 0 mm 3 m/S 676 mmHg 25%
    13:00 +34°C° 0 mm 3 m/S 676 mmHg 24%
    14:00 +35°C° 0 mm 3 m/S 676 mmHg 23%
    15:00 +35°C° 0 mm 3 m/S 675 mmHg 22%
    16:00 +34°C° 0,1 mm 3 m/S 675 mmHg 24%
    17:00 +34°C° 0,1 mm 2 m/S 675 mmHg 25%
    18:00 +32°C° 0,1 mm 2 m/S 675 mmHg 26%
    19:00 +31°C° 0,1 mm 2 m/S 675 mmHg 29%
    20:00 +30°C° 0,1 mm 2 m/S 675 mmHg 31%
    21:00 +29°C° 0,1 mm 1 m/S 675 mmHg 34%
    22:00 +29°C° 0 mm 2 m/S 675 mmHg 35%
    23:00 +28°C° 0 mm 2 m/S 675 mmHg 37%

    übermorgen, 26 August, Samstag

    Zeit Temperatur Niederschläge Wind Luftdruck Luftfeuchtigkeit
    00:00 +28°C° 0 mm 3 m/S 675 mmHg 38%
    01:00 +27°C° 0 mm 3 m/S 674 mmHg 40%
    02:00 +27°C° 0 mm 3 m/S 674 mmHg 42%
    03:00 +26°C° 0 mm 3 m/S 674 mmHg 45%
    04:00 +26°C° 0 mm 3 m/S 674 mmHg 45%
    05:00 +26°C° 0 mm 3 m/S 674 mmHg 46%
    06:00 +25°C° 0 mm 3 m/S 674 mmHg 47%
    07:00 +27°C° 0 mm 3 m/S 674 mmHg 43%
    08:00 +28°C° 0 mm 3 m/S 675 mmHg 38%
    09:00 +30°C° 0 mm 3 m/S 676 mmHg 33%
    10:00 +31°C° 0 mm 3 m/S 676 mmHg 30%
    11:00 +33°C° 0 mm 3 m/S 676 mmHg 28%
    12:00 +34°C° 0 mm 3 m/S 676 mmHg 25%
    13:00 +35°C° 0 mm 3 m/S 675 mmHg 24%
    14:00 +35°C° 0 mm 3 m/S 675 mmHg 24%
    15:00 +35°C° 0 mm 3 m/S 675 mmHg 23%
    16:00 +34°C° 0,1 mm 3 m/S 675 mmHg 25%
    17:00 +34°C° 0,1 mm 3 m/S 675 mmHg 27%
    18:00 +32°C° 0,1 mm 2 m/S 675 mmHg 28%
    19:00 +31°C° 0,3 mm 2 m/S 675 mmHg 31%
    20:00 +30°C° 0,3 mm 2 m/S 675 mmHg 33%
    21:00 +29°C° 0,3 mm 1 m/S 675 mmHg 36%
    22:00 +29°C° 0,2 mm 2 m/S 675 mmHg 37%
    23:00 +28°C° 0,2 mm 2 m/S 675 mmHg 38%

    27 August, Sonntag

    Zeit Temperatur Niederschläge Wind Luftdruck Luftfeuchtigkeit
    00:00 +28°C° 0,2 mm 3 m/S 675 mmHg 38%
    01:00 +27°C° 0,1 mm 2 m/S 674 mmHg 40%
    02:00 +27°C° 0,1 mm 2 m/S 674 mmHg 41%
    03:00 +27°C° 0,1 mm 2 m/S 674 mmHg 42%
    04:00 +27°C° 0 mm 2 m/S 674 mmHg 42%
    05:00 +26°C° 0 mm 2 m/S 674 mmHg 42%
    06:00 +26°C° 0 mm 2 m/S 674 mmHg 42%
    07:00 +28°C° 0 mm 2 m/S 675 mmHg 38%
    08:00 +29°C° 0 mm 2 m/S 675 mmHg 34%
    09:00 +31°C° 0 mm 2 m/S 676 mmHg 30%
    10:00 +32°C° 0 mm 2 m/S 676 mmHg 28%
    11:00 +34°C° 0 mm 2 m/S 676 mmHg 26%
    12:00 +34°C° 0 mm 2 m/S 676 mmHg 24%
    13:00 +35°C° 0 mm 2 m/S 676 mmHg 23%
    14:00 +35°C° 0 mm 3 m/S 676 mmHg 23%
    15:00 +35°C° 0 mm 3 m/S 675 mmHg 22%
    16:00 +34°C° 0 mm 3 m/S 675 mmHg 25%
    17:00 +33°C° 0 mm 4 m/S 675 mmHg 27%
    18:00 +32°C° 0 mm 4 m/S 675 mmHg 30%
    19:00 +30°C° 0 mm 3 m/S 675 mmHg 32%
    20:00 +29°C° 0 mm 3 m/S 675 mmHg 35%
    21:00 +28°C° 0 mm 2 m/S 675 mmHg 38%
    22:00 +28°C° 0 mm 2 m/S 675 mmHg 39%
    23:00 +27°C° 0 mm 1 m/S 675 mmHg 40%

    28 August, Montag

    Zeit Temperatur Niederschläge Wind Luftdruck Luftfeuchtigkeit
    00:00 +27°C° 0 mm 1 m/S 675 mmHg 41%
    01:00 +27°C° 0 mm 1 m/S 675 mmHg 42%
    02:00 +26°C° 0 mm 1 m/S 674 mmHg 42%
    03:00 +24°C° 0 mm 0 m/S 674 mmHg 42%
    04:00 +24°C° 0 mm 0 m/S 675 mmHg 42%
    05:00 +24°C° 0 mm 0 m/S 675 mmHg 42%
    06:00 +24°C° 0 mm 0 m/S 675 mmHg 42%
    07:00 +28°C° 0 mm 1 m/S 675 mmHg 37%
    08:00 +29°C° 0 mm 1 m/S 676 mmHg 33%
    09:00 +30°C° 0 mm 1 m/S 676 mmHg 28%
    10:00 +31°C° 0 mm 1 m/S 676 mmHg 26%
    11:00 +32°C° 0 mm 1 m/S 676 mmHg 24%
    12:00 +33°C° 0 mm 1 m/S 676 mmHg 21%
    13:00 +35°C° 0 mm 2 m/S 676 mmHg 20%
    14:00 +35°C° 0 mm 2 m/S 675 mmHg 19%
    15:00 +35°C° 0 mm 3 m/S 675 mmHg 18%
    16:00 +35°C° 0 mm 3 m/S 675 mmHg 20%
    17:00 +34°C° 0 mm 3 m/S 675 mmHg 21%
    18:00 +33°C° 0 mm 3 m/S 675 mmHg 22%
    19:00 +31°C° 0 mm 2 m/S 675 mmHg 24%
    20:00 +30°C° 0 mm 2 m/S 675 mmHg 27%
    21:00 +29°C° 0 mm 2 m/S 675 mmHg 29%
    22:00 +29°C° 0 mm 2 m/S 674 mmHg 29%
    23:00 +28°C° 0 mm 1 m/S 674 mmHg 30%

    29 August, Dienstag

    Zeit Temperatur Niederschläge Wind Luftdruck Luftfeuchtigkeit
    00:00 +28°C° 0 mm 1 m/S 674 mmHg 31%
    01:00 +28°C° 0 mm 1 m/S 674 mmHg 31%
    02:00 +27°C° 0 mm 1 m/S 674 mmHg 32%
    03:00 +27°C° 0 mm 2 m/S 673 mmHg 32%
    04:00 +27°C° 0 mm 2 m/S 674 mmHg 33%
    05:00 +27°C° 0 mm 2 m/S 674 mmHg 34%
    06:00 +27°C° 0 mm 2 m/S 674 mmHg 35%
    07:00 +28°C° 0 mm 2 m/S 674 mmHg 32%
    08:00 +29°C° 0 mm 2 m/S 675 mmHg 29%
    09:00 +30°C° 0 mm 2 m/S 675 mmHg 26%
    10:00 +31°C° 0 mm 2 m/S 675 mmHg 24%
    11:00 +32°C° 0 mm 2 m/S 675 mmHg 23%
    12:00 +34°C° 0 mm 2 m/S 675 mmHg 21%
    13:00 +34°C° 0 mm 2 m/S 675 mmHg 21%
    14:00 +35°C° 0 mm 2 m/S 674 mmHg 20%
    15:00 +35°C° 0 mm 2 m/S 674 mmHg 19%
    16:00 +34°C° 0 mm 2 m/S 674 mmHg 21%
    17:00 +34°C° 0 mm 2 m/S 674 mmHg 22%
    18:00 +32°C° 0 mm 2 m/S 674 mmHg 24%
    19:00 +31°C° 0 mm 2 m/S 674 mmHg 26%
    20:00 +30°C° 0 mm 1 m/S 674 mmHg 27%
    21:00 +30°C° 0 mm 1 m/S 674 mmHg 29%
    22:00 +29°C° 0 mm 1 m/S 674 mmHg 29%
    23:00 +29°C° 0 mm 1 m/S 674 mmHg 30%
    Mehr zeigen